This demonstration page uses our WeatherBlox Daily Observations layout. Learn more.

Left ArrowRight Arrow

Hourly Observations for April 14, 2022

Temp ( °F °C ) Dew Point ( °F °C ) Humidity (%) Winds ( mph kmh ) Pressure ( in mb ) Visibility ( mi km ) Precip ( " mm )
12:56 am 00:56 Clear 36 2.1 8 -13.3 31 31 NW 14 22 29.95 1014 10 16 0.00 0.00
1:56 am 01:56 Clear 33 0.5 8 -13.2 35 35 WNW 10 17 29.96 1014 10 16 0.00 0.00
2:56 am 02:56 Clear 32 0.2 8 -13.5 35 35 WNW 14 22 29.94 1014 10 16 0.00 0.00
3:56 am 03:56 Clear 31 -0.7 8 -13.3 38 38 W 12 19 29.96 1014 10 16 0.00 0.00
4:56 am 04:56 Clear 30 -1.3 8 -13.2 40 40 WNW 13 20 29.95 1014 10 16 0.00 0.00
5:56 am 05:56 Clear 28 -2 9 -12.6 45 45 W 8 13 29.97 1015 10 16 0.00 0.00
6:56 am 06:56 Sunny 28 -2.5 10 -12 48 48 W 8 13 29.99 1016 10 16 0.00 0.00
7:56 am 07:56 Sunny 30 -1.2 10 -12.5 42 42 W 13 20 30.01 1016 8 13 0.00 0.00
8:56 am 08:56 Sunny 33 0.7 10 -12.3 37 37 W 15 24 30.01 1016 8 13 0.00 0.00
9:56 am 09:56 Sunny 37 2.7 10 -12.4 32 32 W 17 28 30.01 1016 9 14 0.00 0.00
10:56 am 10:56 Sunny 40 4.4 10 -12.1 29 29 W 18 30 30.01 1016 8 13 0.00 0.00
11:42 am 11:42 undefined 43 6 10 -12 26 26 WSW 18 30 30.02 1017 10 16 0.00 0.00
11:56 am 11:56 Sunny 43 6.1 10 -12.5 25 25 W 22 35 30.02 1017 9 14 0.00 0.00
12:56 pm 12:56 Sunny 46 8 10 -12.5 22 22 W 24 39 29.99 1016 7 11 0.00 0.00
1:56 pm 13:56 Sunny 50 9.9 9 -12.7 19 19 W 23 37 29.97 1015 8 13 0.00 0.00
2:56 pm 14:56 Mostly Sunny 53 11.7 8 -13.3 16 16 W 22 35 29.95 1014 10 16 0.00 0.00
3:56 pm 15:56 Partly Cloudy 55 12.7 8 -13.3 15 15 W 24 39 29.94 1014 8 13 0.00 0.00
4:56 pm 16:56 Mostly Cloudy 55 12.8 10 -12.4 16 16 W 21 33 29.94 1014 9 14 0.00 0.00
5:56 pm 17:56 Partly Cloudy 56 13.5 13 -10.4 18 18 WNW 25 41 29.92 1013 10 16 0.00 0.00
6:56 pm 18:56 Mostly Cloudy 56 13.5 13 -10.4 18 18 W 14 22 29.92 1013 10 16 0.00 0.00
7:56 pm 19:56 Mostly Cloudy 53 11.5 15 -9.5 22 22 NW 12 19 29.92 1013 10 16 0.00 0.00
8:56 pm 20:56 Mostly Cloudy 50 9.8 7 -14.1 17 17 NNW 8 13 29.96 1015 10 16 0.00 0.00
9:56 pm 21:56 Mostly Cloudy 47 8.4 8 -13.3 20 20 NNE 12 19 29.96 1015 10 16 0.00 0.00
10:56 pm 22:56 Mostly Cloudy 44 6.9 8 -13.4 22 22 NNE 9 15 29.96 1015 10 16 0.00 0.00
11:56 pm 23:56 Cloudy 44 6.4 8 -13.3 23 23 N 10 17 30.02 1017 10 16 0.00 0.00

Powered by AerisWeather